Regional Weather Roundup
Issued by NWS

Home | Current Version | Previous Version | Text Only | Print | Product List | Glossary Off
Versions: 1 2 3 4 5 6 7 8 9 10 11 12 13 14 15 16 17 18 19 20 21 22 23 24 25 26 27 28

000
ASUS45 KPSR 182310
RWRAZ

ARIZONA HOURLY REGIONAL WEATHER ROUNDUP
NATIONAL WEATHER SERVICE PHOENIX AZ
400 PM MST WED OCT 18 2017

NOTE: FAIR INDICATES FEW OR NO CLOUDS BELOW 12,000 FEET WITH NO
SIGNIFICANT WEATHER AND/OR OBSTRUCTIONS TO VISIBILITY.

AZZ001>003-036-190000-
NORTHWEST ARIZONA

CITY           SKY/WX    TMP DP  RH WIND       PRES   REMARKS
BULLHEAD CITY  MOSUNNY   88  16   7 N15       29.87S
KINGMAN        PTSUNNY   83  33  16 W7        30.03F
$$

AZZ004>008-015-016-018-190000-
NORTH CENTRAL ARIZONA

CITY           SKY/WX    TMP DP  RH WIND       PRES   REMARKS
GRAND CANYON   PTSUNNY   71  26  18 SW8G16    30.23S
WILLIAMS       CLOUDY    70  30  23 NW9       30.24S
PRESCOTT       CLOUDY    77  31  18 W10       30.13S
FLAGSTAFF      CLOUDY    68  24  19 SW10      30.25S
PAYSON           N/A     79  30  17 W6G13     30.15S
PAGE           CLOUDY    74  21  13 NE3       30.09S
$$

AZZ009>014-017-190000-
NORTHEAST ARIZONA

CITY           SKY/WX    TMP DP  RH WIND       PRES   REMARKS
WINSLOW        PTSUNNY   82  24  12 NE5       30.09F
SAINT JOHNS    MOSUNNY   79  26  14 W9        30.13F
WINDOW ROCK    SUNNY     76  25  15 VRB6      30.20F
SHOW LOW       MOSUNNY   75  23  14 MISG      30.20S
$$

AZZ540-542>544-546-548-190000-
GREATER PHOENIX AREA

CITY           SKY/WX    TMP DP  RH WIND       PRES   REMARKS
PHOENIX        PTSUNNY   94  40  15 SW6       29.84F
BUCKEYE        CLOUDY    91  82  75 CALM      29.86F HX 114
GLENDALE       PTSUNNY   95  32  11 S7        29.87F
LUKE AFB       PTSUNNY   94  29  10 SW9       29.84F
DEER VALLEY    PTSUNNY   92  35  13 W6        29.87F
SCOTTSDALE     PTSUNNY   94  32  11 SW7       29.89F
MESA-FALCON    MOSUNNY   93  39  15 W9        29.88F
MESA-GATEWAY   PTSUNNY   93  37  14 W8        29.88F
CHANDLER         N/A     95  34  11 SW6       29.86F
$$

AZZ539-553-190000-
SOUTHWEST MARICOPA COUNTY AND PINAL COUNTY

CITY           SKY/WX    TMP DP  RH WIND       PRES   REMARKS
CASA GRANDE    NOT AVBL
GILA BEND      PTSUNNY   93  36  13 NW5       29.84F
$$

AZZ503-504-507>509-190000-
SOUTHEAST ARIZONA

CITY           SKY/WX    TMP DP  RH WIND       PRES   REMARKS
TUCSON         MOSUNNY   93  38  14 VRB6      29.96S
DAVIS-MONTHAN  MOSUNNY   91  36  14 VRB2      29.93F
RYAN FIELD     SUNNY     93  37  14 NW12G18   29.94F
NOGALES        SUNNY     88  38  17 CALM      30.02F
SIERRA VISTA   CLOUDY    87  37  17 NW10      30.08F
DOUGLAS        MOSUNNY   87  33  14 NW8       30.03S
SAFFORD        MOSUNNY   92  39  15 W9        29.95F
$$

AZZ532-190000-
SOUTHWEST ARIZONA

CITY           SKY/WX    TMP DP  RH WIND       PRES   REMARKS
YUMA           MOSUNNY   97  25   7 CALM      29.81F
$$

CAZ041-043-047-048-061-525>527-560>570-190000-
SOUTHERN CALIFORNIA

CITY           SKY/WX    TMP DP  RH WIND       PRES   REMARKS
DOWNTOWN L.A.  SUNNY     81  50  33 VRB3      29.89F
L.A. AIRPORT   MOSUNNY   74  63  68 W10       29.90F
SAN DIEGO      MOSUNNY   73  63  70 SW5       29.93F
BURBANK        SUNNY     83  42  23 S10       29.90S
ONTARIO        MOSUNNY   86  52  30 W14       29.90S
RIVERSIDE      SUNNY     86  56  35 W17       29.89S
PALM SPRINGS   SUNNY     97  38  13 E12       29.82S
EL CENTRO NAS  MOSUNNY   99  38  12 SE13      29.78F
IMPERIAL       SUNNY    100  36  11 S8        29.77F
BLYTHE         SUNNY     94  27   9 E5        29.82F
NEEDLES        MOSUNNY   91  18   7 N3        29.89S
$$

NVZ020-UTZ003-190000-
SOUTHERN NEVADA-UTAH

CITY           SKY/WX    TMP DP  RH WIND       PRES   REMARKS
LAS VEGAS      PTSUNNY   81  11   7 CALM      29.97F
SALT LAKE CITY MOSUNNY   69  33  26 W9        30.12F
$$

NMZ009-TXZ055-190000-
NEW MEXICO-WEST TEXAS

CITY           SKY/WX    TMP DP  RH WIND       PRES   REMARKS
ALBUQUERQUE    CLOUDY    75  18  11 W3        30.15S
EL PASO        MOSUNNY   87  45  23 VRB5      30.05F
$$


........................KEY........................
SKY/WX - SKY CONDITION/WEATHER
TMP    - TEMPERATURE IN FAHRENHEIT
DP     - DEW POINT IN FAHRENHEIT
RH     - RELATIVE HUMIDITY IN PERCENT
WIND   - DIRECTION AND SPEED IN MILES PER HOUR (MPH)
VRB    - VARIABLE WIND DIRECTION
PRES   - MEAN SEA LEVEL PRESSURE IN INCHES OF MERCURY
         F - FALLING PRESSURE   R - RISING PRESSURE
         S - STEADY PRESSURE
VSB    - VISIBILITY IN MILES
HX     - HEAT INDEX IN FAHRENHEIT
WCI    - WIND CHILL INDEX IN FAHRENHEIT
TC     - TEMPERATURE IN CELSIUS WHICH IS ALSO KNOWN AS
         TEMPERATURE IN CENTIGRADE
AFB    - AIR FORCE BASE
         LUKE AFB IS LUKE AIR FORCE BASE
         DAVIS-MONTHAN IS DAVIS-MONTHAN AIR FORCE BASE
NAS    - NAVAL AIR STATION
         EL CENTRO NAS IS EL CENTRO NAVAL AIR STATION
N/A    - NOT AVAILABLE





USA.gov is the U.S. government's official web portal to all federal, state and local government web resources and services.